SWR208 YSSY-YMML

Flight info

Callsign SWR208
Flight time 1h 6m
Altitude 40000
Route WOL H65 LEECE Q29 ML
Aircraft A359/H-SDE2E3GHIJ3J4J5LM1ORWXY/LB1D1

Departure

Time 2026-05-01 08:03
Airport Sydney Kingsford Smith International Airport (YSSY)

Arrival

Time 2026-05-01 09:09
Airport Melbourne Airport (YMML)
Time Latitude Longitude Altitude Speed Heading
2026-05-01 07:34 -33.92981 151.16757 27 ft 0 kts 257°
2026-05-01 07:49 -33.92974 151.16795 26 ft 2 kts 257°
2026-05-01 07:49 -33.92971 151.16814 27 ft 2 kts 257°
2026-05-01 07:50 -33.92967 151.16834 26 ft 3 kts 252°
2026-05-01 07:50 -33.92984 151.16743 27 ft 0 kts 259°
2026-05-01 07:51 -33.92983 151.16748 27 ft 3 kts 256°
2026-05-01 07:51 -33.92975 151.16768 26 ft 3 kts 217°
2026-05-01 07:51 -33.92971 151.16773 25 ft 0 kts 204°
2026-05-01 07:55 -33.93079 151.16890 27 ft 17 kts 124°
2026-05-01 07:55 -33.93309 151.17033 27 ft 20 kts 145°
2026-05-01 07:56 -33.93793 151.17178 24 ft 29 kts 167°
2026-05-01 07:56 -33.94186 151.17277 28 ft 30 kts 167°
2026-05-01 07:57 -33.94391 151.17333 32 ft 30 kts 167°
2026-05-01 07:57 -33.94820 151.17447 28 ft 35 kts 167°
2026-05-01 07:58 -33.95324 151.17572 27 ft 38 kts 167°
2026-05-01 07:58 -33.95849 151.17708 29 ft 40 kts 168°
2026-05-01 07:59 -33.96137 151.17782 31 ft 17 kts 168°
2026-05-01 07:59 -33.96343 151.17835 29 ft 1 kts 168°
2026-05-01 08:00 -33.96429 151.17896 30 ft 0 kts 119°
2026-05-01 08:01 -33.96362 151.18044 30 ft 0 kts 355°
2026-05-01 08:02 -33.96260 151.18022 29 ft 57 kts 348°
2026-05-01 08:02 -33.95500 151.17825 29 ft 161 kts 349°
2026-05-01 08:03 -33.92644 151.16953 416 ft 238 kts 345°
2026-05-01 08:03 -33.90934 151.16287 790 ft 276 kts 342°
2026-05-01 08:03 -33.87562 151.14370 2783 ft 267 kts 312°
2026-05-01 08:04 -33.86506 151.10081 4321 ft 271 kts 282°
2026-05-01 08:04 -33.85502 151.05699 5507 ft 272 kts 291°
2026-05-01 08:05 -33.84369 151.01324 6575 ft 278 kts 277°
2026-05-01 08:05 -33.84263 150.99000 7087 ft 280 kts 273°
2026-05-01 08:05 -33.84216 150.96653 7590 ft 282 kts 272°
2026-05-01 08:06 -33.86166 150.92720 8648 ft 291 kts 207°
2026-05-01 08:06 -33.90040 150.92820 9720 ft 292 kts 154°
2026-05-01 08:07 -33.93764 150.94936 10750 ft 299 kts 153°
2026-05-01 08:07 -33.97655 150.96852 11755 ft 307 kts 165°
2026-05-01 08:08 -33.99789 150.97083 12268 ft 310 kts 183°
2026-05-01 08:08 -34.04027 150.95950 13331 ft 315 kts 195°
2026-05-01 08:09 -34.08279 150.94545 14388 ft 318 kts 195°
2026-05-01 08:09 -34.10420 150.93846 14887 ft 320 kts 195°
2026-05-01 08:09 -34.12571 150.93147 15386 ft 321 kts 195°
2026-05-01 08:10 -34.16898 150.91743 16407 ft 323 kts 195°
2026-05-01 08:10 -34.21256 150.90329 17466 ft 325 kts 194°
2026-05-01 08:11 -34.25622 150.88915 18562 ft 325 kts 194°
2026-05-01 08:11 -34.29984 150.87499 19535 ft 324 kts 195°
2026-05-01 08:12 -34.34327 150.86087 20528 ft 322 kts 196°
2026-05-01 08:12 -34.36486 150.85385 21044 ft 321 kts 195°
2026-05-01 08:12 -34.40756 150.83994 22082 ft 317 kts 196°
2026-05-01 08:13 -34.42880 150.83303 22609 ft 315 kts 196°
2026-05-01 08:13 -34.44991 150.82614 23157 ft 313 kts 196°
2026-05-01 08:13 -34.49158 150.81256 24215 ft 307 kts 197°
2026-05-01 08:14 -34.51210 150.80555 24686 ft 304 kts 200°
2026-05-01 08:14 -34.53165 150.79642 25164 ft 299 kts 207°
2026-05-01 08:14 -34.54971 150.78438 25650 ft 294 kts 215°
2026-05-01 08:14 -34.56591 150.76973 26143 ft 288 kts 223°
2026-05-01 08:15 -34.58004 150.75292 26638 ft 281 kts 231°
2026-05-01 08:15 -34.60359 150.71636 27669 ft 269 kts 237°
2026-05-01 08:15 -34.61455 150.69808 28099 ft 267 kts 238°
2026-05-01 08:16 -34.62535 150.67980 28471 ft 266 kts 237°
2026-05-01 08:16 -34.63605 150.66173 28787 ft 267 kts 237°
2026-05-01 08:16 -34.64695 150.64346 29139 ft 268 kts 237°
2026-05-01 08:16 -34.65798 150.62507 29485 ft 270 kts 237°
2026-05-01 08:17 -34.66909 150.60658 29803 ft 272 kts 237°
2026-05-01 08:17 -34.68028 150.58798 30092 ft 274 kts 237°
2026-05-01 08:17 -34.69158 150.56918 30379 ft 276 kts 237°
2026-05-01 08:17 -34.70292 150.55024 30630 ft 278 kts 237°
2026-05-01 08:18 -34.71436 150.53116 30874 ft 280 kts 237°
2026-05-01 08:18 -34.73739 150.49259 31325 ft 283 kts 237°
2026-05-01 08:19 -34.75674 150.46021 31694 ft 286 kts 237°
2026-05-01 08:19 -34.76843 150.44064 31926 ft 287 kts 237°
2026-05-01 08:19 -34.78028 150.42086 32086 ft 290 kts 237°
2026-05-01 08:19 -34.79626 150.39413 32207 ft 299 kts 237°
2026-05-01 08:20 -34.80458 150.38018 32279 ft 303 kts 237°
2026-05-01 08:20 -34.81715 150.35905 32286 ft 314 kts 237°
2026-05-01 08:20 -34.83004 150.33738 32297 ft 325 kts 237°
2026-05-01 08:20 -34.84349 150.31469 32313 ft 337 kts 237°
2026-05-01 08:21 -34.85740 150.29112 32327 ft 349 kts 237°
2026-05-01 08:21 -34.87181 150.26661 32343 ft 362 kts 237°
2026-05-01 08:21 -34.88665 150.24128 32356 ft 375 kts 237°
2026-05-01 08:21 -34.90205 150.21493 32364 ft 388 kts 237°
2026-05-01 08:22 -34.91795 150.18763 32378 ft 402 kts 237°
2026-05-01 08:22 -34.93441 150.15935 32381 ft 415 kts 237°
2026-05-01 08:22 -34.95146 150.13017 32378 ft 429 kts 237°
2026-05-01 08:22 -34.96906 150.10000 32385 ft 443 kts 237°
2026-05-01 08:23 -34.98721 150.06893 32376 ft 456 kts 237°
2026-05-01 08:23 -35.00587 150.03695 32371 ft 469 kts 237°
2026-05-01 08:23 -35.02502 150.00405 32366 ft 482 kts 237°
2026-05-01 08:24 -35.06429 149.93645 32368 ft 488 kts 237°
2026-05-01 08:24 -35.10345 149.86951 32369 ft 484 kts 236°
2026-05-01 08:25 -35.14419 149.80442 32361 ft 480 kts 235°
2026-05-01 08:25 -35.18432 149.73902 32365 ft 480 kts 236°
2026-05-01 08:26 -35.22352 149.67286 32363 ft 480 kts 237°
2026-05-01 08:26 -35.26269 149.60577 32368 ft 494 kts 237°
2026-05-01 08:26 -35.28259 149.57155 32366 ft 505 kts 237°
2026-05-01 08:27 -35.30340 149.53579 32361 ft 513 kts 237°
2026-05-01 08:27 -35.34477 149.46479 32357 ft 516 kts 237°
2026-05-01 08:28 -35.38648 149.39315 32353 ft 516 kts 237°
2026-05-01 08:28 -35.42814 149.32142 32353 ft 516 kts 237°
2026-05-01 08:29 -35.46978 149.24951 32350 ft 517 kts 237°
2026-05-01 08:29 -35.51137 149.17754 32353 ft 517 kts 237°
2026-05-01 08:30 -35.55298 149.10540 32359 ft 517 kts 237°
2026-05-01 08:30 -35.59455 149.03319 32375 ft 518 kts 237°
2026-05-01 08:31 -35.63607 148.96093 32373 ft 516 kts 237°
2026-05-01 08:31 -35.67745 148.88873 32372 ft 516 kts 237°
2026-05-01 08:32 -35.71856 148.81685 32375 ft 516 kts 237°
2026-05-01 08:32 -35.75986 148.74449 32376 ft 516 kts 237°
2026-05-01 08:33 -35.80107 148.67216 32367 ft 515 kts 237°
2026-05-01 08:33 -35.84216 148.59989 32368 ft 515 kts 237°
2026-05-01 08:34 -35.88320 148.52753 32368 ft 515 kts 237°
2026-05-01 08:34 -35.92416 148.45501 32366 ft 515 kts 237°
2026-05-01 08:35 -35.96484 148.38264 32365 ft 512 kts 238°
2026-05-01 08:35 -36.00539 148.31034 32351 ft 512 kts 238°
2026-05-01 08:36 -36.04606 148.23774 32346 ft 514 kts 238°
2026-05-01 08:36 -36.08641 148.16559 32346 ft 512 kts 237°
2026-05-01 08:37 -36.12671 148.09341 32337 ft 505 kts 237°
2026-05-01 08:37 -36.16644 148.02234 32328 ft 500 kts 237°
2026-05-01 08:38 -36.20598 147.95154 32328 ft 499 kts 238°
2026-05-01 08:38 -36.24528 147.88100 32325 ft 495 kts 237°
2026-05-01 08:39 -36.28430 147.81080 32318 ft 494 kts 237°
2026-05-01 08:39 -36.32308 147.74087 32326 ft 498 kts 237°
2026-05-01 08:40 -36.38247 147.63345 32320 ft 504 kts 237°
2026-05-01 08:40 -36.42186 147.56180 32319 ft 502 kts 237°
2026-05-01 08:41 -36.46119 147.49013 32319 ft 502 kts 237°
2026-05-01 08:41 -36.50052 147.41834 32315 ft 502 kts 237°
2026-05-01 08:42 -36.53982 147.34650 32325 ft 500 kts 237°
2026-05-01 08:42 -36.57868 147.27532 32316 ft 500 kts 237°
2026-05-01 08:43 -36.61778 147.20354 32313 ft 500 kts 237°
2026-05-01 08:43 -36.65683 147.13170 32319 ft 501 kts 237°
2026-05-01 08:44 -36.69586 147.05974 32325 ft 500 kts 237°
2026-05-01 08:44 -36.73447 146.98840 32326 ft 499 kts 237°
2026-05-01 08:45 -36.77355 146.91610 32308 ft 499 kts 237°
2026-05-01 08:45 -36.81210 146.84465 32328 ft 500 kts 237°
2026-05-01 08:46 -36.85089 146.77258 32307 ft 499 kts 238°
2026-05-01 08:46 -36.88956 146.70061 32309 ft 499 kts 238°
2026-05-01 08:47 -36.92814 146.62861 32318 ft 498 kts 238°
2026-05-01 08:47 -36.96675 146.55638 32313 ft 500 kts 238°
2026-05-01 08:48 -37.00541 146.48394 32311 ft 500 kts 238°
2026-05-01 08:48 -37.04399 146.41151 32307 ft 500 kts 238°
2026-05-01 08:49 -37.08229 146.33941 32316 ft 501 kts 238°
2026-05-01 08:49 -37.12088 146.26664 32269 ft 499 kts 238°
2026-05-01 08:50 -37.14008 146.23038 32055 ft 499 kts 238°
2026-05-01 08:50 -37.15927 146.19408 31801 ft 500 kts 238°
2026-05-01 08:50 -37.17847 146.15772 31490 ft 501 kts 238°
2026-05-01 08:50 -37.19776 146.12114 31051 ft 504 kts 238°
2026-05-01 08:51 -37.21719 146.08426 30667 ft 507 kts 237°
2026-05-01 08:51 -37.23649 146.04761 29876 ft 502 kts 237°
2026-05-01 08:51 -37.25572 146.01109 28886 ft 500 kts 238°
2026-05-01 08:51 -37.27476 145.97490 28025 ft 496 kts 238°
2026-05-01 08:52 -37.29374 145.93877 27233 ft 492 kts 238°
2026-05-01 08:52 -37.31248 145.90304 26431 ft 488 kts 238°
2026-05-01 08:52 -37.33083 145.86799 25658 ft 485 kts 239°
2026-05-01 08:52 -37.34937 145.83256 25014 ft 481 kts 239°
2026-05-01 08:53 -37.36767 145.79754 24547 ft 478 kts 239°
2026-05-01 08:53 -37.38594 145.76253 24100 ft 478 kts 239°
2026-05-01 08:53 -37.40412 145.72764 23606 ft 476 kts 239°
2026-05-01 08:53 -37.42224 145.69284 23062 ft 474 kts 239°
2026-05-01 08:54 -37.44024 145.65823 22525 ft 470 kts 239°
2026-05-01 08:54 -37.45809 145.62400 22001 ft 466 kts 239°
2026-05-01 08:54 -37.47660 145.59060 21471 ft 462 kts 237°
2026-05-01 08:54 -37.49552 145.55829 20963 ft 453 kts 236°
2026-05-01 08:55 -37.51420 145.52704 20646 ft 439 kts 236°
2026-05-01 08:55 -37.53232 145.49674 20255 ft 428 kts 236°
2026-05-01 08:55 -37.54986 145.46717 19590 ft 424 kts 236°
2026-05-01 08:55 -37.56735 145.43734 18892 ft 423 kts 237°
2026-05-01 08:56 -37.58489 145.40717 18135 ft 420 kts 237°
2026-05-01 08:56 -37.60187 145.37783 17379 ft 418 kts 237°
2026-05-01 08:56 -37.61888 145.34838 16601 ft 408 kts 236°
2026-05-01 08:56 -37.63523 145.32010 15853 ft 389 kts 236°
2026-05-01 08:57 -37.65084 145.29309 15129 ft 375 kts 237°
2026-05-01 08:57 -37.66605 145.26671 14420 ft 370 kts 237°
2026-05-01 08:57 -37.68115 145.24043 13682 ft 368 kts 236°
2026-05-01 08:57 -37.69612 145.21435 12908 ft 365 kts 236°
2026-05-01 08:58 -37.71093 145.18853 12156 ft 361 kts 236°
2026-05-01 08:58 -37.72538 145.16336 11420 ft 354 kts 236°
2026-05-01 08:58 -37.73989 145.13854 10683 ft 340 kts 233°
2026-05-01 08:58 -37.75745 145.11933 9966 ft 331 kts 211°
2026-05-01 08:59 -37.77883 145.11021 9323 ft 320 kts 188°
2026-05-01 08:59 -37.80003 145.10807 9023 ft 298 kts 182°
2026-05-01 08:59 -37.81980 145.10716 8980 ft 270 kts 182°
2026-05-01 08:59 -37.83764 145.10643 8976 ft 244 kts 182°
2026-05-01 09:00 -37.85400 145.10424 8879 ft 232 kts 198°
2026-05-01 09:00 -37.86785 145.09474 8453 ft 224 kts 223°
2026-05-01 09:00 -37.87809 145.08002 7957 ft 223 kts 239°
2026-05-01 09:00 -37.88664 145.06374 7681 ft 221 kts 242°
2026-05-01 09:01 -37.89492 145.04749 7412 ft 218 kts 242°
2026-05-01 09:01 -37.90310 145.03135 7110 ft 218 kts 242°
2026-05-01 09:01 -37.91118 145.01517 6812 ft 216 kts 244°
2026-05-01 09:01 -37.91525 144.99741 6498 ft 206 kts 271°
2026-05-01 09:02 -37.91579 144.97948 6203 ft 202 kts 275°
2026-05-01 09:02 -37.91579 144.96133 5662 ft 211 kts 276°
2026-05-01 09:02 -37.91570 144.94239 5006 ft 223 kts 276°
2026-05-01 09:02 -37.91566 144.92243 4409 ft 223 kts 276°
2026-05-01 09:03 -37.91564 144.90291 3695 ft 227 kts 276°
2026-05-01 09:03 -37.91511 144.88311 3122 ft 217 kts 284°
2026-05-01 09:03 -37.90900 144.86779 2977 ft 178 kts 322°
2026-05-01 09:03 -37.89905 144.86266 2972 ft 141 kts
2026-05-01 09:04 -37.89046 144.86528 2954 ft 116 kts 21°
2026-05-01 09:04 -37.88231 144.86821 2969 ft 130 kts 14°
2026-05-01 09:04 -37.87310 144.87047 3058 ft 136 kts
2026-05-01 09:04 -37.86693 144.87090 3135 ft 133 kts
2026-05-01 09:05 -37.85762 144.87100 3207 ft 135 kts 360°
2026-05-01 09:05 -37.84804 144.87037 3261 ft 139 kts 359°
2026-05-01 09:05 -37.83829 144.86933 3292 ft 143 kts 355°
2026-05-01 09:05 -37.82826 144.86738 3295 ft 149 kts 352°
2026-05-01 09:06 -37.81765 144.86461 3275 ft 162 kts 351°
2026-05-01 09:06 -37.80636 144.86181 3010 ft 171 kts 355°
2026-05-01 09:06 -37.79440 144.86021 2666 ft 173 kts 358°
2026-05-01 09:06 -37.78247 144.85847 2305 ft 171 kts 356°
2026-05-01 09:07 -37.77079 144.85648 1964 ft 169 kts 355°
2026-05-01 09:07 -37.75935 144.85411 1694 ft 166 kts 355°
2026-05-01 09:07 -37.74787 144.85236 1413 ft 165 kts 357°
2026-05-01 09:07 -37.73630 144.85060 1145 ft 169 kts 356°
2026-05-01 09:08 -37.72472 144.84813 1076 ft 169 kts 353°
2026-05-01 09:08 -37.71291 144.84584 839 ft 174 kts 355°
2026-05-01 09:08 -37.70100 144.84385 684 ft 175 kts 356°
2026-05-01 09:08 -37.68897 144.84156 494 ft 174 kts 354°
2026-05-01 09:09 -37.67752 144.83944 364 ft 155 kts 354°
2026-05-01 09:09 -37.66817 144.83773 394 ft 105 kts 352°
2026-05-01 09:09 -37.66417 144.83700 398 ft 41 kts 352°
2026-05-01 09:09 -37.66098 144.83639 406 ft 58 kts 352°
2026-05-01 09:10 -37.65732 144.83571 414 ft 49 kts 352°
2026-05-01 09:10 -37.65604 144.83620 412 ft 11 kts 61°
2026-05-01 09:10 -37.65590 144.83653 420 ft 0 kts 60°
2026-05-01 09:11 -37.65589 144.83654 421 ft 2 kts 63°
2026-05-01 09:11 -37.65568 144.83796 414 ft 22 kts 82°
2026-05-01 09:12 -37.65594 144.83957 405 ft 13 kts 142°
2026-05-01 09:12 -37.65659 144.83981 406 ft 15 kts 170°
2026-05-01 09:12 -37.65774 144.84007 403 ft 21 kts 169°
2026-05-01 09:12 -37.65943 144.84032 392 ft 28 kts 173°
2026-05-01 09:13 -37.66153 144.84071 383 ft 32 kts 171°
2026-05-01 09:13 -37.66379 144.84120 378 ft 34 kts 170°
2026-05-01 09:13 -37.66607 144.84166 381 ft 31 kts 177°
2026-05-01 09:13 -37.66647 144.84169 382 ft 1 kts 175°
2026-05-01 09:14 -37.66723 144.84232 379 ft 22 kts 114°
2026-05-01 09:14 -37.66712 144.84294 376 ft 16 kts 61°
2026-05-01 09:14 -37.66664 144.84514 365 ft 31 kts 79°
2026-05-01 09:14 -37.66595 144.84781 347 ft 31 kts 40°
2026-05-01 09:15 -37.66544 144.85011 353 ft 27 kts 112°
2026-05-01 09:15 -37.66672 144.85077 353 ft 17 kts 172°
2026-05-01 09:15 -37.66752 144.85090 360 ft 8 kts 170°
2026-05-01 09:15 -37.66772 144.85130 354 ft 6 kts 110°
2026-05-01 09:16 -37.66772 144.85139 355 ft 1 kts 91°
2026-05-01 09:16 -37.66770 144.85144 353 ft 0 kts 74°